FW7700 Weather Reports


time (UTC)temp
C
wind
direction
speed
KPH
gust
KPH
rain 1hr
cm
rain 24hr
cm
rain mn
cm
humidity
%
barometer
mb
20260504215045 23 194 11.3 12.9 0.00 0.00 0.00 37 1007.8
20260504214024 23 199 4.8 9.7 0.00 0.00 0.00 39 1007.8
20260504213003 23 176 6.4 9.7 0.00 0.00 0.00 37 1008.1
20260504211942 24 272 8.0 11.3 0.00 0.00 0.00 37 1007.8
20260504210921 24 198 3.2 3.2 0.00 0.00 0.00 37 1007.8
20260504205900 23 190 1.6 3.2 0.00 0.00 0.00 37 1007.8
20260504204839 23 225 4.8 6.4 0.00 0.00 0.00 39 1007.8
20260504203818 23 191 3.2 3.2 0.00 0.00 0.00 37 1007.8
20260504202757 24 153 6.4 9.7 0.00 0.00 0.00 38 1007.8
20260504201736 23 182 1.6 3.2 0.00 0.00 0.00 38 1008.1
20260504200715 23 205 3.2 4.8 0.00 0.00 0.00 39 1008.5
20260504195654 23 258 8.0 11.3 0.00 0.00 0.00 37 1008.5
20260504194633 23 247 6.4 6.4 0.00 0.00 0.00 38 1008.5
20260504193612 23 179 9.7 14.5 0.00 0.00 0.00 39 1008.5
20260504192551 23 187 6.4 6.4 0.00 0.00 0.00 37 1008.8
20260504191530 23 211 3.2 4.8 0.00 0.00 0.00 38 1009.1
20260504190509 23 148 6.4 6.4 0.00 0.00 0.00 39 1009.1
20260504185448 22 299 6.4 6.4 0.00 0.00 0.00 37 1009.1
20260504184427 22 201 8.0 11.3 0.00 0.00 0.00 38 1009.5
20260504183406 22 151 9.7 12.9 0.00 0.00 0.00 38 1009.5
20260504182345 22 156 6.4 9.7 0.00 0.00 0.00 39 1009.8
20260504181324 22 221 4.8 6.4 0.00 0.00 0.00 39 1009.8
20260504180303 22 234 4.8 6.4 0.00 0.00 0.00 40 1010.2
20260504175242 22 225 6.4 6.4 0.00 0.00 0.00 40 1010.2
20260504174221 21 243 8.0 9.7 0.00 0.00 0.00 40 1010.2
20260504173200 21 171 4.8 6.4 0.00 0.00 0.00 39 1010.5
20260504172139 21 227 3.2 6.4 0.00 0.00 0.00 40 1010.8
20260504171118 21 315 4.8 6.4 0.00 0.00 0.00 40 1010.8
20260504150706 18 164 3.2 4.8 0.00 0.00 0.00 42 1012.2
20260504140500 17 166 4.8 6.4 0.00 0.00 0.00 51 1012.5
20260504130254 13 161 3.2 4.8 0.00 0.00 0.00 57 1012.9
20260504081306 5 136 0.0 0.0 0.00 0.00 0.00 75 1013.5
20260504080245 5 129 0.0 0.0 0.00 0.00 0.00 75 1013.2
20260504050647 8 137 0.0 0.0 0.00 0.00 0.00 65 1013.5
20260504045627 8 140 0.0 1.6 0.00 0.00 0.00 64 1013.9
20260504044606 8 137 0.0 0.0 0.00 0.00 0.00 63 1013.5
20260504043544 8 142 0.0 0.0 0.00 0.00 0.00 63 1013.5
20260504042524 8 140 0.0 0.0 0.00 0.00 0.00 64 1013.5
20260504041503 8 140 0.0 0.0 0.00 0.00 0.00 63 1013.5
20260504040442 8 143 0.0 1.6 0.00 0.00 0.00 62 1013.5
20260504035420 8 142 0.0 0.0 0.00 0.00 0.00 61 1013.2
20260504034400 8 144 0.0 0.0 0.00 0.00 0.00 61 1013.2
20260504033338 8 177 0.0 0.0 0.00 0.00 0.00 61 1013.2
20260504032318 8 135 0.0 0.0 0.00 0.00 0.00 61 1013.2
20260504031257 8 135 0.0 0.0 0.00 0.00 0.00 62 1013.2
20260504030236 8 141 0.0 0.0 0.00 0.00 0.00 62 1013.2
20260504025214 8 141 0.0 0.0 0.00 0.00 0.00 60 1013.2
20260504024153 8 140 0.0 0.0 0.00 0.00 0.00 60 1013.2
20260504023133 8 142 0.0 0.0 0.00 0.00 0.00 60 1013.2
20260504022111 9 142 0.0 0.0 0.00 0.00 0.00 59 1013.2
20260504021051 9 142 0.0 0.0 0.00 0.00 0.00 58 1013.5
20260504020030 9 141 0.0 0.0 0.00 0.00 0.00 56 1012.9
20260504015008 9 139 0.0 0.0 0.00 0.00 0.00 55 1013.2
20260504013947 9 141 0.0 0.0 0.00 0.00 0.00 55 1012.9
20260504012926 10 139 0.0 0.0 0.00 0.00 0.00 54 1013.2
20260504011905 10 142 0.0 0.0 0.00 0.00 0.00 54 1012.9
20260504010844 10 137 0.0 0.0 0.00 0.00 0.00 54 1012.5
20260504005824 10 142 0.0 0.0 0.00 0.00 0.00 52 1012.5
20260504004802 11 150 0.0 0.0 0.00 0.00 0.00 49 1012.5
20260504003741 11 132 0.0 0.0 0.00 0.00 0.00 49 1012.5
20260504002720 12 145 0.0 0.0 0.00 0.00 0.00 45 1012.2
20260504001659 13 195 3.2 3.2 0.00 0.00 0.00 43 1012.2
20260504000638 13 278 0.0 1.6 0.00 0.00 0.00 42 1011.8
20260503235617 14 171 3.2 3.2 0.00 0.00 0.00 41 1011.8
20260503234556 15 285 3.2 3.2 0.00 0.00 0.00 40 1012.2
20260503233535 15 285 3.2 3.2 0.00 0.00 0.00 38 1011.8
20260503232514 15 193 3.2 3.2 0.00 0.00 0.00 38 1011.5
20260503231453 16 174 4.8 4.8 0.00 0.00 0.00 37 1011.8
20260503230432 16 255 6.4 9.7 0.00 0.00 0.00 37 1011.8
20260503225411 16 222 9.7 14.5 0.00 0.00 0.00 36 1011.8
20260503224350 16 357 3.2 3.2 0.00 0.00 0.00 35 1011.5
20260503223329 16 263 3.2 4.8 0.00 0.00 0.00 37 1011.8
20260503222308 16 106 3.2 3.2 0.00 0.00 0.00 36 1011.8
20260503220227 16 175 3.2 4.8 0.00 0.00 0.00 35 1011.8